Weather History for KARB - July, 2013

Change the Weather History Date:

Tuesday, July 30, 2013

  Actual Average Record
Temperature  
Mean Temperature 62 °F -  
Max Temperature 78 °F 80 °F 93 °F (1999)
Min Temperature 46 °F 56 °F 46 °F (2013)
Degree Days  
Heating Degree Days 4    
Growing Degree Days 12 (Base 50)    
Moisture  
Dew Point 52 °F    
Average Humidity 85    
Maximum Humidity 100    
Minimum Humidity 48    
Precipitation  
Precipitation 0.00 in - - ()
Sea Level Pressure  
Sea Level Pressure 30.19 in    
Wind  
Wind Speed 2 mph (SW)    
Max Wind Speed 7 mph    
Max Gust Speed -    
Visibility 5 miles    
Events Fog    
Averages and records for this station are not official NWS values.
T = Trace of Precipitation, MM = Missing Value Source: NWS Daily Summary

Daily Weather History Graph

Daily Weather History Graph

Search for Another Location

Airport or City:

Trip Planner

Search our weather history database for the weather conditions in past years. The results will help you decide how hot, cold, wet, or windy it might be!

Date:

Astronomy

Jul. 30, 2013 Rise Set
Actual Time 6:26 AM EDT 8:56 PM EDT
Civil Twilight 5:54 AM EDT 9:27 PM EDT
Nautical Twilight 5:14 AM EDT 10:07 PM EDT
Astronomical Twilight 4:29 AM EDT 10:51 PM EDT
Moon 12:44 AM EDT (7/30) 3:14 PM EDT (7/30)
Length of Visible Light 15h 33m
Length of Day
14h 29m
Last Quarter, 41% of the Moon is Illuminated
Jul 30
Last Quarter
Aug 6
New
Aug 14
First Quarter
Aug 20
Full
Aug 28
Last Quarter

Hourly Weather History & Observations

Time (EDT) Temp. Windchill Dew Point Humidity Pressure Visibility Wind Dir Wind Speed Gust Speed Precip Events Conditions
12:53 AM 60.1 °F - 53.1 °F 78% 30.19 in 10.0 mi North 5.8 mph - N/A   Clear
1:53 AM 51.1 °F - 48.9 °F 92% 30.20 in 10.0 mi Calm Calm - N/A   Clear
2:53 AM 48.9 °F - 48.0 °F 97% 30.19 in 5.0 mi Calm Calm - N/A   Clear
3:31 AM 48.2 °F - 48.2 °F 100% 30.20 in 1.5 mi Calm Calm - N/A   Clear
3:34 AM 46.4 °F - 46.4 °F 100% 30.20 in 0.8 mi Calm Calm - N/A   Clear
3:53 AM 48.0 °F - 46.9 °F 96% 30.20 in 0.5 mi Calm Calm - N/A Fog Fog
4:04 AM 48.2 °F - 48.2 °F 100% 30.20 in 0.2 mi Calm Calm - N/A Fog Fog
4:13 AM 48.2 °F - 48.2 °F 100% 30.20 in 2.0 mi Calm Calm - N/A   Partly Cloudy
4:20 AM 48.2 °F - 46.4 °F 93% 30.20 in 7.0 mi Calm Calm - N/A   Partly Cloudy
4:32 AM 46.4 °F - 46.4 °F 100% 30.20 in 1.0 mi Calm Calm - N/A   Clear
4:37 AM 46.4 °F - 46.4 °F 100% 30.20 in 0.2 mi Calm Calm - N/A Fog Fog
4:49 AM 48.2 °F - 48.2 °F 100% 30.20 in 1.5 mi Calm Calm - N/A   Partly Cloudy
4:51 AM 48.2 °F - 48.2 °F 100% 30.20 in 3.0 mi Calm Calm - N/A   Partly Cloudy
4:53 AM 48.0 °F - 48.0 °F 100% 30.20 in 5.0 mi Calm Calm - N/A   Partly Cloudy
5:03 AM 46.4 °F - 46.4 °F 100% 30.20 in 1.2 mi Calm Calm - N/A   Partly Cloudy
5:05 AM 46.4 °F - 46.4 °F 100% 30.20 in 0.8 mi Calm Calm - N/A   Mist
5:35 AM 46.4 °F 45.2 °F 46.4 °F 100% 30.21 in 1.8 mi West 3.5 mph - N/A   Partly Cloudy
5:42 AM 46.4 °F 45.2 °F 44.6 °F 93% 30.21 in 6.0 mi WSW 3.5 mph - N/A   Clear
5:46 AM 46.4 °F 45.2 °F 44.6 °F 93% 30.21 in 1.2 mi WSW 3.5 mph - N/A   Clear
5:53 AM 46.0 °F - 45.0 °F 96% 30.22 in 0.2 mi Calm Calm - N/A Fog Fog
6:05 AM 46.4 °F - 46.4 °F 100% 30.21 in 0.2 mi Calm Calm - N/A Fog Fog
6:53 AM 46.0 °F - 45.0 °F 96% 30.23 in 0.2 mi Calm Calm - N/A Fog Fog
7:25 AM 51.8 °F - 50.0 °F 94% 30.22 in 1.0 mi Calm Calm - N/A   Clear
7:29 AM 51.8 °F - 51.8 °F 100% 30.22 in 2.0 mi Calm Calm - N/A   Clear
7:49 AM 53.6 °F - 53.6 °F 100% 30.23 in 5.0 mi Calm Calm - N/A   Clear
7:53 AM 55.0 °F - 54.0 °F 96% 30.23 in 6.0 mi Calm Calm - N/A   Clear
8:53 AM 63.0 °F - 57.0 °F 81% 30.24 in 10.0 mi Calm Calm - N/A   Clear
9:53 AM 68.0 °F - 57.9 °F 70% 30.24 in 10.0 mi South 3.5 mph - N/A   Clear
10:53 AM 70.0 °F - 57.0 °F 63% 30.23 in 10.0 mi Variable 3.5 mph - N/A   Clear
11:53 AM 71.1 °F - 57.0 °F 61% 30.22 in 10.0 mi ESE 3.5 mph - N/A   Clear
12:53 PM 73.0 °F - 55.0 °F 53% 30.21 in 10.0 mi Calm Calm - N/A   Clear
1:53 PM 73.9 °F - 55.0 °F 52% 30.20 in 10.0 mi West 6.9 mph - N/A   Clear
2:53 PM 75.9 °F - 57.0 °F 52% 30.18 in 10.0 mi WNW 4.6 mph - N/A   Partly Cloudy
3:53 PM 77.0 °F - 57.9 °F 52% 30.17 in 10.0 mi West 6.9 mph - N/A   Partly Cloudy
4:53 PM 77.0 °F - 55.9 °F 48% 30.15 in 10.0 mi Calm Calm - N/A   Clear
5:53 PM 75.9 °F - 57.9 °F 54% 30.15 in 10.0 mi SSW 5.8 mph - N/A   Partly Cloudy
6:53 PM 75.0 °F - 59.0 °F 57% 30.14 in 10.0 mi South 5.8 mph - N/A   Clear
7:53 PM 73.0 °F - 57.9 °F 59% 30.14 in 10.0 mi Calm Calm - N/A   Clear
8:53 PM 69.1 °F - 61.0 °F 75% 30.13 in 10.0 mi SSE 4.6 mph - N/A   Clear
9:14 PM 68.0 °F - 60.8 °F 78% 30.14 in 1.8 mi Calm Calm - N/A   Haze
9:23 PM 66.2 °F - 60.8 °F 83% 30.14 in 3.0 mi SSW 3.5 mph - N/A   Haze
9:53 PM 66.9 °F - 60.1 °F 79% 30.14 in 10.0 mi SE 3.5 mph - N/A   Clear
10:53 PM 64.0 °F - 60.1 °F 87% 30.14 in 10.0 mi Calm Calm - N/A   Clear
11:53 PM 59.0 °F - 57.9 °F 96% 30.14 in 10.0 mi Calm Calm - N/A   Clear